Regional Weather Roundup
Issued by NWS

Home | Current Version | Previous Version | Graphics & Text | Print | Product List | Glossary On
Versions: 1 2 3 4 5 6 7 8 9 10 11 12 13 14 15 16 17 18 19 20 21 22 23 24 25 26 27 28 29 30 31 32 33 34 35 36 37 38 39 40 41 42 43 44 45 46 47 48 49 50
000
ASUS45 KBOU 202207
RWRCO

WEATHER ROUNDUP FOR COLORADO
NATIONAL WEATHER SERVICE DENVER/BOULDER CO
300 PM MST FRI JAN 20 2017

NOTE: "FAIR" INDICATES FEW OR NO CLOUDS BELOW 12000 FEET WITH NO
SIGNIFICANT WEATHER AND/OR OBSTRUCTIONS TO VISIBILITY.

COZ001>005-013-030-031-202300-
...NORTHWEST COLORADO...

CITY           SKY/WX    TMP DP  RH WIND       PRES   REMARKS
CRAIG          LGT SNOW  29  25  85 S3        29.52S FOG
HAYDEN         CLOUDY    28  21  74 W7        29.51S WCI  21
MEEKER         CLOUDY    30  26  85 CALM      29.51F
MOUNT WERNER   NOT AVBL
STEAMBOAT SPGS CLOUDY    28  23  79 CALM      29.49S
WALDEN           N/A     28  19  69 S7        29.47R WCI  21
$$

COZ006>008-011-202300-
...WEST CENTRAL VALLEYS...

CITY           SKY/WX    TMP DP  RH WIND       PRES   REMARKS
GRAND JUNCTION CLOUDY    35  33  92 NW7       29.55F WCI  29
MONTROSE       CLOUDY    39  22  50 W6        29.57R
EAGLE          NOT AVBL
RIFLE          CLOUDY    37  30  75 W18G26    29.52S
DELTA          FAIR      42  29  59 W9        29.56S
NUCLA          CLOUDY    37  25  60 SW12      29.61S
$$

COZ017>023-064>068-202300-
...SOUTHWEST COLORADO...

CITY           SKY/WX    TMP DP  RH WIND       PRES   REMARKS
DURANGO        PTSUNNY   31  22  69 SW5       29.60F WCI  26
CORTEZ         CLOUDY    36  31  82 MISG      29.60F
PAGOSA SPRINGS CLOUDY    31  21  65 SW10G16   29.61F WCI  22
TELLURIDE      NOT AVBL
WOLF CREEK PAS CLOUDY    10   9  92 SW21G39   29.55R WCI  -9
$$

COZ009-010-012-014-032>034-037-058>063-202300-
...CENTRAL COLORADO...

CITY           SKY/WX    TMP DP  RH WIND       PRES   REMARKS
ASPEN          PTSUNNY   30  23  75 N5        29.48R WCI  25
BUENA VISTA    FAIR      32  15  47 W14G21    29.45R WCI  22
COPPER MTN     NOT AVBL
BERTHOUD PASS  NOT AVBL
COTTONWOOD PAS FAIR      28  10  47 SW28G37   29.43S WCI  13
GUNNISON       FAIR      21  15  78 SE6       29.52F WCI  13
KREMMLING      SNOW      30  27  86 W3        29.49S VSB 1/2
LEADVILLE      FLURRIES  23  12  62 NW14G21   29.44R WCI  11
SALIDA         PTSUNNY   37  14  39 S14G21    29.54R
SUNLIGHT       SNOW      18  16  93 MISG      29.51S VSB<1/4
WILKERSON PASS FAIR      23  16  74 SW12G17   29.44R WCI  12
$$

COZ069>075-202300-
...SAN LUIS VALLEY/SANGRE DE CRISTO MOUNTAINS...

CITY           SKY/WX    TMP DP  RH WIND       PRES   REMARKS
ALAMOSA        FAIR      28  19  69 SW6       29.52R WCI  22
LA VETA PASS   FAIR      23  16  74 NE20G51   29.48R WCI   8
SAGUACHE       LGT SNOW  30  21  69 SE5       29.53R WCI  25
$$

COZ035-036-038>040-202300-
...NORTHERN COLORADO FRONT RANGE...

CITY           SKY/WX    TMP DP  RH WIND       PRES   REMARKS
DENVER INTL AP PTSUNNY   44  28  53 CALM      29.36S
DMNS CITY PARK   N/A     47  20  35 SE7G18    29.35S
AURORA         PTSUNNY   43  26  49 CALM      29.36S
FRONT RANGE AP NOT AVBL
ERIE MUNI ARPT FAIR      47  22  37 E3        29.35R
BOULDER MUN AP FAIR      46  23  39 SE6       29.33S
CENTENNIAL     PTSUNNY   41  25  53 SE6       29.36R
BROOMFIELD     PTSUNNY   46  25  42 N6        29.35S
FORT COLLINS   FAIR      46  28  49 SE8       29.36S
LONGMONT       FAIR      48  30  48 NE10      29.37R
$$

COZ041-046-047-076>085-087-088-202300-
...PIKES PEAK/PALMER DIVIDE AND SOUTHERN FOOTHILLS...

CITY           SKY/WX    TMP DP  RH WIND       PRES   REMARKS
COLO. SPRINGS  PTSUNNY   38  32  79 S12       29.41R
A. F. ACADEMY  FAIR      40  28  62 S10       29.38R
SCHRIEVER AFB  NOT AVBL
ELLICOTT       FAIR     N/A N/A N/A S6        29.39S
FALCON         FAIR      35  31  88 S10       29.40S WCI  27
FORT CARSON    NOT AVBL
LIMON          FAIR      37  34  89 SW8       29.38F
MONUMENT HILL  FAIR      36  23  60 CALM      29.39R
TRINIDAD       FAIR      37  25  61 SE9       29.43R
$$

COZ042>045-048>051-090-091-202300-
...NORTHEAST COLORADO...

CITY           SKY/WX    TMP DP  RH WIND       PRES   REMARKS
GREELEY ARPT   FAIR      45  28  51 E3        29.38R
AKRON          FAIR      39  31  72 W13       29.36S
BURLINGTON     MIX PCPN  35  33  92 W13       29.40R WCI  26
WRAY           CLOUDY    41  36  81 SW6       29.37S
STERLING       PTSUNNY   43  32  65 NW16      29.37R
HOLYOKE        FAIR      45  32  61 NW7       29.36S
FORT MORGAN    CLOUDY    41  31  66 W6        29.38S
$$

COZ086-089-092>099-202300-
...SOUTHEAST COLORADO...

CITY           SKY/WX    TMP DP  RH WIND       PRES   REMARKS
PUEBLO         FAIR      44  33  65 E6        29.40F
LA JUNTA       FAIR      38  35  89 S7        29.44S
LAMAR          PTSUNNY   38  33  82 W10       29.42R
SPRINGFIELD      N/A     38  33  82 N15       29.43R
$$



USA.gov is the U.S. government's official web portal to all federal, state and local government web resources and services.